Date String (YYYY-MM-DD hh:mm:ss) UTC,Instrument flags,Ambient pressure (hPa),Sample flow (lpm),Bypass flow (lpm),Sample temperature (°C),Ambient temperature (°C),ASC tube jacket temperature (°C),LED temperature (°C),Box temperature (°C),Sample RH (%),Span deviation,Mass concentration (μg/m³),Mass concentration (μg/m³),Mass concentration (μg/m³)
DateTimeUTC,F1_M11,P_M11,Q1_M11,Q2_M11,T1_M11,T2_M11,T3_M11,T4_M11,T5_M11,U1_M11,ZSPAN_M11,X0_M11,X2_M11,X1_M11
2022-01-30 11:00:00,,0826.3,4.99,0.00,22.2,22.0,00.0,31.2,24.0,04.7,0000.0,0003.77,0001.68,0001.52
2022-01-30 11:01:00,,0826.4,5.00,0.00,22.3,22.8,00.0,31.3,24.3,04.6,0000.0,0002.28,0001.61,0001.46
2022-01-30 11:02:00,,0826.3,5.01,0.00,22.5,23.0,00.0,31.3,24.4,04.5,0000.0,0001.99,0001.64,0001.50
2022-01-30 11:03:00,,0826.3,5.00,0.00,22.5,22.8,00.0,31.3,24.4,04.4,0000.0,0002.04,0001.70,0001.58
2022-01-30 11:04:00,,0826.2,5.00,0.00,22.5,22.6,00.0,31.3,24.4,04.4,0000.0,0002.09,0001.75,0001.61
2022-01-30 11:05:00,,0826.3,4.99,0.00,22.5,22.5,00.0,31.4,24.3,04.4,0000.0,0002.04,0001.72,0001.61
2022-01-30 11:06:00,,0826.3,5.01,0.00,22.5,22.3,00.0,31.4,24.3,04.4,0000.0,0002.04,0001.71,0001.60
2022-01-30 11:07:00,,0826.2,4.99,0.00,22.5,22.2,00.0,31.4,24.2,04.3,0000.0,0001.93,0001.61,0001.51
2022-01-30 11:08:00,,0826.2,4.99,0.00,22.4,22.0,00.0,31.4,24.2,04.3,0000.0,0001.91,0001.61,0001.51
2022-01-30 11:09:00,,0826.1,5.00,0.00,22.4,21.9,00.0,31.4,24.2,04.3,0000.0,0002.01,0001.69,0001.58
2022-01-30 11:10:00,,0826.2,5.01,0.00,22.4,21.9,00.0,31.4,24.1,04.3,0000.0,0002.10,0001.73,0001.62
2022-01-30 11:11:00,,0826.2,5.00,0.00,22.4,21.8,00.0,31.4,24.1,04.3,0000.0,0002.10,0001.74,0001.63
2022-01-30 11:12:00,,0826.2,4.98,0.00,22.4,21.7,00.0,31.4,24.0,04.5,0000.0,0002.05,0001.71,0001.61
2022-01-30 11:13:00,,0826.2,5.00,0.00,22.3,21.7,00.0,31.4,24.0,04.4,0000.0,0002.10,0001.70,0001.58
2022-01-30 11:14:00,,0826.1,5.00,0.00,22.3,21.6,00.0,31.3,24.0,04.2,0000.0,0002.07,0001.66,0001.54
2022-01-30 11:15:00,,0826.1,5.00,0.00,22.3,21.6,00.0,31.3,24.0,04.1,0000.0,0002.04,0001.62,0001.50
2022-01-30 11:16:00,,0826.1,5.00,0.00,22.3,21.6,00.0,31.3,24.0,04.1,0000.0,0002.02,0001.59,0001.46
2022-01-30 11:17:00,,0826.1,5.00,0.00,22.2,21.5,00.0,31.3,23.9,04.2,0000.0,0001.90,0001.48,0001.36
2022-01-30 11:18:00,,0826.1,5.01,0.00,22.2,21.5,00.0,31.3,23.9,04.2,0000.0,0001.81,0001.43,0001.31
2022-01-30 11:19:00,,0826.1,5.00,0.00,22.2,21.5,00.0,31.3,23.9,04.1,0000.0,0001.75,0001.40,0001.30
2022-01-30 11:20:00,,0826.1,5.01,0.00,22.2,21.5,00.0,31.3,23.9,04.1,0000.0,0001.67,0001.35,0001.26
2022-01-30 11:21:00,,0826.1,4.98,0.00,22.2,21.4,00.0,31.2,23.9,04.5,0000.0,0001.47,0001.23,0001.16
2022-01-30 11:22:00,,0826.1,5.00,0.00,22.2,21.5,00.0,31.2,23.9,04.6,0000.0,0001.35,0001.12,0001.05
2022-01-30 11:23:00,,0826.1,5.02,0.00,22.2,22.1,00.0,31.3,24.1,04.2,0000.0,0001.32,0001.09,0001.02
2022-01-30 11:24:00,,0826.1,4.99,0.00,22.4,22.8,00.0,31.3,24.3,04.1,0000.0,0001.25,0001.07,0001.01
2022-01-30 11:25:00,,0826.1,5.00,0.00,22.5,23.0,00.0,31.3,24.4,04.2,0000.0,0001.18,0001.02,0000.95
2022-01-30 11:26:00,,0826.2,5.00,0.00,22.5,22.8,00.0,31.4,24.4,04.1,0000.0,0001.09,0000.94,0000.88
2022-01-30 11:27:00,,0826.1,5.00,0.00,22.5,22.6,00.0,31.4,24.3,04.1,0000.0,0000.98,0000.86,0000.82
2022-01-30 11:28:00,,0826.1,5.00,0.00,22.5,22.4,00.0,31.4,24.3,04.2,0000.0,0000.93,0000.81,0000.77
2022-01-30 11:29:00,,0826.0,5.01,0.00,22.5,22.2,00.0,31.4,24.2,04.1,0000.0,0000.97,0000.82,0000.77
2022-01-30 11:30:00,,0826.1,5.01,0.00,22.4,22.0,00.0,31.4,24.1,04.1,0000.0,0000.95,0000.79,0000.74
2022-01-30 11:31:00,,0826.0,4.99,0.00,22.4,21.9,00.0,31.4,24.1,04.3,0000.0,0000.90,0000.73,0000.68
2022-01-30 11:32:00,,0826.0,5.00,0.00,22.4,21.8,00.0,31.4,24.1,04.2,0000.0,0000.98,0000.74,0000.66
2022-01-30 11:33:00,,0826.0,5.00,0.00,22.3,21.7,00.0,31.4,24.0,04.2,0000.0,0000.98,0000.74,0000.66
2022-01-30 11:34:00,,0826.0,5.00,0.00,22.3,21.7,00.0,31.4,24.0,04.1,0000.0,0000.96,0000.73,0000.65
2022-01-30 11:35:00,,0826.0,4.99,0.00,22.3,21.6,00.0,31.3,24.0,04.0,0000.0,0000.93,0000.70,0000.63
2022-01-30 11:36:00,,0826.0,5.00,0.00,22.3,21.6,00.0,31.3,23.9,04.0,0000.0,0000.91,0000.68,0000.63
2022-01-30 11:37:00,,0825.9,5.00,0.00,22.2,21.5,00.0,31.3,23.9,03.9,0000.0,0000.93,0000.71,0000.65
2022-01-30 11:38:00,,0825.9,5.00,0.00,22.2,21.4,00.0,31.3,23.9,04.1,0000.0,0000.96,0000.72,0000.65
2022-01-30 11:39:00,,0825.9,5.00,0.00,22.2,21.4,00.0,31.3,23.8,04.1,0000.0,0000.97,0000.73,0000.66
2022-01-30 11:40:00,,0825.9,5.01,0.00,22.2,21.4,00.0,31.3,23.8,04.0,0000.0,0000.94,0000.73,0000.67
2022-01-30 11:41:00,,0825.8,5.01,0.00,22.1,21.4,00.0,31.3,23.8,04.0,0000.0,0000.94,0000.73,0000.66
2022-01-30 11:42:00,,0825.9,4.99,0.00,22.1,21.4,00.0,31.2,23.8,04.0,0000.0,0000.97,0000.73,0000.66
2022-01-30 11:43:00,,0825.9,5.01,0.00,22.2,21.9,00.0,31.3,23.9,03.8,0000.0,0000.89,0000.72,0000.67
2022-01-30 11:44:00,,0825.9,5.00,0.00,22.3,22.6,00.0,31.3,24.2,03.7,0000.0,0000.91,0000.73,0000.69
2022-01-30 11:45:00,,0825.8,5.00,0.00,22.4,23.1,00.0,31.3,24.4,03.7,0000.0,0001.03,0000.75,0000.71
2022-01-30 11:46:00,,0825.8,4.99,0.00,22.5,22.9,00.0,31.3,24.4,03.7,0000.0,0001.01,0000.74,0000.69
2022-01-30 11:47:00,,0825.9,5.00,0.00,22.5,22.7,00.0,31.3,24.3,03.8,0000.0,0001.02,0000.73,0000.68
2022-01-30 11:48:00,,0825.9,5.00,0.00,22.5,22.4,00.0,31.4,24.3,04.0,0000.0,0000.99,0000.70,0000.65
2022-01-30 11:49:00,,0826.0,5.02,0.00,22.5,22.2,00.0,31.4,24.2,04.0,0000.0,0000.95,0000.67,0000.63
2022-01-30 11:50:00,,0826.0,4.99,0.00,22.4,22.1,00.0,31.4,24.2,04.0,0000.0,0000.97,0000.67,0000.61
2022-01-30 11:51:00,,0826.0,5.00,0.00,22.4,22.0,00.0,31.4,24.1,04.0,0000.0,0000.96,0000.66,0000.60
2022-01-30 11:52:00,,0825.9,5.00,0.00,22.4,21.9,00.0,31.4,24.1,04.0,0000.0,0000.93,0000.64,0000.60
2022-01-30 11:53:00,,0825.9,5.01,0.00,22.4,21.8,00.0,31.4,24.0,04.0,0000.0,0000.90,0000.64,0000.59
2022-01-30 11:54:00,,0825.9,5.01,0.00,22.3,21.7,00.0,31.3,24.0,03.9,0000.0,0000.90,0000.63,0000.59
2022-01-30 11:55:00,,0825.9,5.01,0.00,22.3,21.6,00.0,31.3,24.0,03.9,0000.0,0000.86,0000.61,0000.57
2022-01-30 11:56:00,,0825.9,5.00,0.00,22.3,21.6,00.0,31.3,23.9,04.0,0000.0,0000.72,0000.58,0000.54
2022-01-30 11:57:00,,0825.9,4.99,0.00,22.2,21.5,00.0,31.3,23.9,04.1,0000.0,0000.71,0000.56,0000.52
2022-01-30 11:58:00,,0825.9,5.00,0.00,22.2,21.5,00.0,31.3,23.9,04.1,0000.0,0000.65,0000.54,0000.51
2022-01-30 11:59:00,,0825.9,5.00,0.00,22.2,21.5,00.0,31.3,23.9,04.2,0000.0,0000.65,0000.54,0000.51
